RH
57 64 63 61 60 57 54 52 55 55 52 53 49 48 48 52 56 65 71 69 84 88 85 73 62 57 52 50 42 42 36 38 40 41 41 42 44 44 42 43 39 38 37 37
50 49 47 57 62 61 59 58 57 58 56 48 58 66 69 73 65 67 70 66 88 89 80 73 64 57 51 47 35 35 37 39 41 42 43 45 45 43 42 43 41 41 40 42
58 56 54 46 45 69 62 59 56 61 49 48 65 60 67 67 64 64 68 69 93 84 78 66 59 54 49 38 31 32 36 38 41 44 46 46 44 44 44 43 45 44 43 42
55 68 54 45 66 44 50 56 50 57 57 59 63 64 66 66 75 69 70 86 88 80 70 60 57 48 39 30 27 35 37 39 43 46 47 48 48 48 48 46 47 46 46 44
62 64 55 66 58 61 56 71 65 63 63 65 63 71 71 73 79 78 78 89 81 74 65 57 46 34 28 28 34 36 39 42 44 47 50 50 49 50 48 49 49 48 46 47
92 81 66 57 58 52 54 71 64 63 68 72 73 74 71 76 86 88 84 77 73 65 56 42 33 30 32 34 35 37 42 45 46 50 52 52 53 51 50 52 49 49 49 50
79 79 70 57 56 53 65 64 73 67 64 67 70 66 72 88 88 83 78 71 64 56 48 38 31 29 34 36 36 41 46 48 50 52 54 54 54 55 54 56 55 56 54 51
89 85 74 65 63 62 66 72 65 64 64 67 66 74 85 88 86 78 74 69 58 50 39 31 30 35 36 34 41 46 50 52 53 55 51 46 60 61 64 61 60 57 56 58
72 74 69 75 69 72 65 66 68 68 63 62 70 79 84 87 89 82 71 62 52 46 38 34 38 39 40 41 48 51 54 55 56 54 53 53 61 61 60 60 60 60 60 66
73 78 73 68 67 65 64 65 66 74 74 72 75 76 80 86 90 86 67 56 46 38 31 31 36 41 45 48 51 55 58 58 57 60 57 60 61 60 64 60 61 61 66 68
84 87 78 73 75 67 69 72 73 76 77 77 79 80 84 88 90 80 64 48 39 33 34 39 45 47 49 49 54 54 56 56 58 58 64 63 61 65 59 58 62 63 62 64
78 75 75 76 73 74 75 77 83 82 84 84 86 84 90 92 93 75 56 42 39 37 42 44 49 52 52 53 55 60 57 53 57 58 66 62 63 62 58 60 60 59 61 61
76 79 77 81 83 82 83 90 95 93 95 94 94 92 93 82 64 54 42 38 38 42 46 53 55 55 54 54 57 58 63 56 60 60 62 62 67 70 71 60 60 61 62 61
81 80 84 84 85 92 95 94 90 89 88 87 93 85 68 49 48 46 40 41 46 48 51 55 56 57 52 57 57 61 64 62 61 64 68 69 69 66 62 66 69 67 61 63
90 88 86 92 94 96 96 94 94 91 91 89 84 87 60 50 48 43 44 46 49 54 54 54 57 56 54 58 55 60 59 62 64 68 70 66 62 62 63 66 67 67 66 67
99 99 97 96 97 100 97 99 94 92 91 86 88 92 78 55 45 45 49 53 54 50 53 56 58 55 56 59 63 67 68 65 64 64 65 62 63 65 67 68 69 74 77 68
90 87 94 84 95 85 85 87 92 92 92 98 96 90 61 47 49 52 53 54 55 56 56 56 54 52 57 63 68 69 70 71 68 62 65 65 66 69 71 81 81 76 75 67
82 83 72 64 74 80 84 89 92 94 98 94 92 77 53 51 49 50 52 57 58 57 54 52 55 59 66 67 66 68 67 67 66 68 66 69 69 66 68 74 76 74 76 71
78 73 78 78 81 84 88 90 91 92 92 81 65 56 53 53 53 55 59 59 60 60 53 53 57 61 66 65 59 64 67 69 68 69 69 68 69 70 73 72 72 71 73 70
80 78 75 76 79 85 86 90 93 91 78 58 55 55 55 55 57 57 61 62 63 59 58 62 64 69 67 67 64 67 69 71 73 70 70 66 67 68 68 70 69 69 71 69
70 70 71 67 66 72 86 89 86 79 66 56 54 53 54 57 60 62 66 68 58 57 60 60 64 64 64 63 64 70 74 73 71 70 68 67 68 70 71 72 74 75 75 72
72 76 77 76 77 73 65 62 70 71 64 58 57 58 61 66 70 76 64 67 63 61 62 66 70 67 62 61 64 71 72 68 65 64 67 70 74 79 85 85 87 85 85 87
70 72 75 82 83 82 74 63 58 56 56 56 58 63 66 67 69 72 69 58 68 66 59 62 63 60 62 59 69 70 66 66 66 68 74 82 84 88 90 91 89 87 87 89
74 75 77 85 87 84 82 77 65 62 64 62 65 65 69 71 68 63 68 64 64 62 60 62 62 60 61 64 67 68 68 70 76 84 81 81 89 92 90 87 90 91 91 86
86 93 97 96 92 91 88 89 87 84 76 73 66 66 64 65 70 69 76 71 65 63 62 60 60 62 64 66 67 68 71 80 86 83 82 88 88 90 90 90 91 91 92 91
84 85 90 91 92 86 82 79 79 77 71 68 65 65 68 72 76 71 72 64 63 62 61 60 61 62 64 66 68 70 71 75 75 77 80 86 88 91 90 88 89 90 90 91
98 90 96 91 82 78 79 75 72 74 69 70 68 72 74 72 69 63 63 66 66 63 64 63 63 66 67 68 69 69 73 76 77 78 86 90 88 90 90 89 90 90 90 90
Wind_Speed
3 4 5 7 10 10 9 8 8 5 8 3 4 4 3 2 2 5 6 7 8 7 6 6 6 5 4 5 5 4 5 5 5 5 5 6 6 6 6 7 8 9 11 11
2 3 2 2 4 8 4 4 2 5 4 3 2 3 2 2 2 4 6 7 8 8 7 6 6 4 3 3 3 4 4 4 5 6 6 6 7 8 8 8 9 10 11 11
3 1 2 4 9 8 5 4 8 8 7 4 3 5 3 3 2 3 5 7 8 7 7 6 5 5 3 2 2 2 2 4 5 5 6 7 8 8 9 10 10 11 11 11
4 2 1 4 1 6 7 2 4 6 5 4 5 3 2 3 3 6 2 7 8 7 6 6 4 3 3 2 1 4 6 6 5 5 6 7 7 7 8 8 9 11 11 12
5 5 4 0 5 7 7 3 2 7 5 4 3 3 3 3 3 4 5 7 7 6 5 6 5 3 3 2 5 5 5 5 5 5 6 6 8 9 9 8 10 10 11 13
3 5 8 1 2 4 4 2 6 6 6 5 4 2 4 4 3 3 5 6 7 6 6 6 4 4 3 4 3 4 5 6 6 5 6 8 8 9 6 8 11 10 13 11
2 2 6 4 3 2 5 4 4 6 6 5 4 4 2 4 2 4 4 7 6 6 6 5 4 3 3 3 4 5 5 5 6 6 6 7 6 6 8 10 10 11 12 12
3 2 7 2 4 6 4 3 6 5 4 4 4 2 4 6 6 6 7 6 5 6 4 3 4 3 2 4 5 5 5 6 6 7 7 7 8 8 8 9 10 12 13 12
7 5 0 1 2 4 4 6 5 5 5 4 3 1 2 3 6 6 6 5 4 5 5 3 3 3 2 4 5 5 6 6 7 8 7 8 7 9 8 8 9 11 10 11
3 2 2 4 4 4 4 5 4 3 3 3 2 3 1 3 5 5 5 5 4 5 4 3 2 2 4 5 5 5 6 7 7 7 9 6 4 6 6 8 8 10 10 11
1 2 2 1 2 6 5 5 5 4 3 3 2 0 1 4 5 6 5 5 5 4 3 2 2 3 4 5 4 5 6 7 7 6 7 8 6 6 7 7 9 12 11 11
6 7 5 4 5 4 6 5 6 3 2 2 1 2 3 3 4 5 6 5 4 3 1 2 4 5 6 5 5 6 6 6 6 6 6 7 8 9 12 17 21 23 24 19
2 4 3 7 7 3 6 5 3 4 3 3 2 0 2 2 3 6 5 5 3 2 1 3 5 6 6 6 5 6 6 7 6 8 7 8 8 9 12 11 19 21 23 24
6 8 5 2 5 5 6 5 3 1 1 2 2 2 2 4 4 5 5 3 3 1 2 3 5 6 7 6 5 6 6 14 8 7 8 8 8 9 9 11 12 11 15 20
6 6 5 8 6 4 3 3 1 1 2 2 2 2 3 4 4 3 3 2 1 2 3 4 6 8 6 5 5 6 7 7 7 7 6 10 9 9 9 10 11 11 11 13
6 6 5 4 5 4 3 2 3 3 3 4 4 3 2 2 3 2 1 2 1 3 5 6 6 5 5 5 6 6 6 15 14 8 8 8 9 9 10 10 11 11 10 11
7 2 2 2 3 4 4 2 4 4 3 5 6 4 4 4 2 2 2 2 3 5 5 5 7 6 5 6 6 6 6 7 14 8 8 8 9 10 10 9 9 10 10 12
5 6 6 6 4 2 2 3 4 4 5 4 4 5 5 5 5 3 3 2 3 5 5 6 5 6 6 6 7 6 6 7 7 8 9 9 10 10 10 10 10 11 11 11
5 8 6 5 5 3 2 3 4 4 3 4 6 7 6 4 3 3 2 3 4 5 5 5 11 10 7 8 12 7 7 8 9 8 9 14 10 9 9 10 10 11 11 10
6 4 4 3 3 3 3 4 3 3 3 5 4 4 5 4 4 3 1 4 5 5 6 7 7 6 7 9 14 6 8 8 9 9 8 10 9 10 9 13 12 11 10 11
6 4 3 3 3 4 5 3 3 4 4 5 6 5 5 3 2 1 2 3 5 5 6 11 7 7 6 10 10 6 6 8 9 9 9 9 9 9 9 10 10 10 10 10
4 4 5 4 3 4 4 4 5 3 5 5 4 3 2 2 1 2 5 6 3 10 7 5 4 11 11 20 7 6 7 8 8 8 8 8 8 9 10 9 10 10 9 9
3 3 4 5 5 4 2 2 3 3 4 4 4 4 4 2 2 2 4 3 3 8 7 6 13 19 21 9 5 6 8 8 8 8 8 8 9 9 9 9 9 9 10 10
3 4 2 2 2 1 3 2 2 3 3 3 3 3 3 1 2 2 3 8 13 12 8 8 13 20 21 6 6 7 8 8 8 7 9 16 9 8 8 9 9 9 9 13
1 3 3 3 2 1 1 1 4 4 5 4 5 4 3 2 2 3 4 5 13 11 7 13 19 19 8 7 7 8 8 8 7 8 8 8 9 9 9 9 9 9 9 8
2 1 2 2 2 1 2 3 4 3 4 3 3 3 3 2 3 4 4 8 5 10 7 7 7 8 8 8 9 9 9 9 10 9 11 10 10 9 9 9 9 8 8 8
2 4 3 4 3 4 3 3 4 4 3 3 1 2 3 3 4 6 9 5 5 6 6 7 7 10 9 9 9 9 9 9 13 11 10 9 9 9 8 8 8 8 8 8
Wind_Direction
36 133 136 178 177 178 192 190 182 215 203 206 168 212 245 289 147 170 178 152 148 142 136 128 106 91 76 57 43 41 40 23 355 343 339 330 326 327 322 328 331 325 324 324
64 58 107 185 182 180 185 160 189 136 230 198 117 111 55 11 38 166 171 162 150 142 144 128 122 113 95 79 47 43 33 6 352 348 335 328 327 335 334 326 325 323 318 318
170 101 111 294 213 183 178 178 151 192 207 151 89 114 83 19 332 236 198 165 154 149 142 139 140 147 132 97 44 14 26 13 358 337 330 333 331 328 324 328 319 317 321 319
127 90 200 239 297 172 129 116 145 102 104 120 147 107 17 24 334 319 179 148 140 142 133 142 141 117 127 84 24 25 12 352 337 329 331 325 318 312 319 317 314 315 313 310
142 192 290 215 183 152 155 198 169 127 122 104 95 68 358 31 19 305 173 151 146 146 142 126 125 134 106 42 28 13 340 317 336 334 324 308 322 323 308 307 317 311 308 307
90 144 208 231 134 129 127 243 179 138 137 131 100 82 259 353 24 51 103 121 132 127 125 131 128 114 98 39 3 339 322 319 325 311 307 330 302 299 296 306 305 304 303 303
128 232 287 232 160 169 123 213 138 132 137 135 158 193 147 106 95 119 117 119 120 122 131 141 147 108 65 2 327 304 309 317 314 326 312 279 287 292 303 305 299 299 304 311
115 149 267 166 69 161 169 68 128 127 152 169 196 169 145 166 157 141 135 130 131 126 134 135 88 72 19 300 293 310 321 315 313 295 296 303 293 296 293 296 302 309 309 307
173 214 240 10 137 107 122 132 169 163 178 168 148 121 110 154 165 167 163 146 130 130 129 128 116 75 309 286 316 320 325 316 298 296 291 289 289 298 306 305 306 303 305 305
115 220 117 97 82 119 131 134 131 91 109 131 142 87 55 144 165 161 157 160 143 140 156 160 101 259 256 304 326 331 306 295 294 290 301 291 276 285 294 302 298 301 303 313
108 85 75 272 153 148 117 95 95 76 64 66 69 27 126 171 174 172 167 162 151 145 143 230 267 317 321 317 317 304 292 284 283 282 282 301 295 286 295 288 296 308 311 313
214 186 151 184 164 121 110 92 68 66 52 52 55 205 171 188 179 164 164 148 135 147 168 307 331 314 310 315 311 293 291 295 295 303 301 305 302 302 298 305 311 314 315 315
185 131 79 105 88 54 108 109 85 96 74 25 27 125 174 159 157 166 136 140 146 164 289 311 316 316 309 300 294 288 286 297 299 317 303 303 305 306 311 313 314 314 315 317
127 112 66 146 153 97 115 140 125 95 253 262 231 199 186 146 135 156 150 145 134 132 313 312 306 293 284 284 282 281 283 314 313 301 295 299 302 303 310 310 314 313 311 314
79 65 106 114 111 122 118 122 116 283 260 279 315 273 185 162 163 173 143 135 74 354 309 300 283 276 274 280 298 308 312 304 295 287 289 302 307 304 305 303 303 304 307 311
99 87 81 109 154 154 156 236 230 264 271 287 277 262 227 162 140 144 120 71 56 290 282 275 272 275 304 317 308 295 285 297 307 305 301 305 304 303 304 301 302 303 309 315
124 149 148 90 161 164 199 228 227 233 243 228 231 211 166 153 147 211 249 221 227 261 274 281 291 306 306 294 288 285 285 286 299 304 298 301 301 300 297 295 303 308 307 310
123 125 126 119 136 170 252 231 233 232 219 228 199 170 173 178 208 226 247 260 267 285 281 285 292 288 278 279 282 282 289 294 296 297 299 301 298 301 310 304 308 310 310 312
138 128 129 144 171 186 227 261 255 243 228 189 163 192 193 195 196 214 224 292 313 314 299 307 306 311 290 293 316 302 296 290 292 292 293 302 304 298 308 307 307 311 310 312
121 125 150 158 158 172 246 246 241 235 218 173 166 168 183 202 204 217 222 277 265 254 284 281 295 284 283 291 306 290 284 286 289 296 299 301 307 304 305 309 308 310 308 308
164 168 196 229 264 253 235 235 221 230 219 190 187 202 205 177 168 177 279 280 274 279 298 312 310 299 299 303 295 285 283 289 293 297 299 300 302 300 299 304 305 301 303 304
178 191 210 214 236 273 252 231 216 204 186 186 187 168 158 254 262 260 234 235 276 315 309 290 282 296 301 309 307 291 287 291 294 294 291 292 294 296 296 295 294 296 298 302
199 207 202 200 220 251 293 257 232 203 198 191 183 184 194 202 204 268 307 308 319 305 311 306 302 310 310 313 296 291 294 293 291 290 291 290 288 286 285 288 294 303 303 299
198 192 181 108 113 83 310 307 221 189 173 154 151 141 137 93 313 258 290 302 306 308 300 306 305 311 315 315 295 290 287 287 286 285 285 290 285 283 290 294 293 294 292 297
104 138 111 95 79 301 257 144 98 96 106 96 86 76 70 89 188 295 299 299 310 314 298 304 312 315 307 291 290 294 293 287 283 279 292 298 291 288 289 292 293 293 297 306
174 144 91 120 97 93 106 113 98 98 100 91 81 61 6 344 311 314 284 296 293 305 300 296 293 300 302 299 294 289 289 291 294 295 295 292 289 289 296 301 298 295 292 295
61 96 73 75 54 74 93 101 107 93 82 78 45 9 334 311 306 322 317 301 293 296 297 297 298 301 298 298 296 293 293 291 293 294 294 295 294 293 297 298 296 293 293 291